Regional Weather Roundup
Issued by NWS

Home | Current Version | Previous Version | Graphics & Text | Print | Product List | Glossary Off
Versions: 1 2 3 4 5 6 7 8 9 10 11 12 13 14 15 16 17 18 19 20 21 22 23 24 25 26 27 28 29 30 31 32 33 34 35 36 37 38 39 40 41 42 43 44 45 46 47 48 49 50

000
ASUS43 KLSX 290759
RWRMO

WEATHER SUMMARY FOR MISSOURI
NATIONAL WEATHER SERVICE SPRINGFIELD MO
200 AM CST THU JAN 29 2015

NOTE: "FAIR" INDICATES FEW OR NO CLOUDS BELOW 12,000 FEET WITH NO
       SIGNIFICANT WEATHER AND/OR OBSTRUCTIONS TO VISIBILITY.
       CURRENT SKY AND/OR WEATHER CONDITIONS ARE NOT AVAILABLE FOR
       CHILLICOTHE AND FARMINGTON.

MOZ001>031-035>038-043-044-053-054-290900-
...NORTHERN AND WESTERN MISSOURI...

CITY           SKY/WX    TMP DP  RH WIND       PRES   REMARKS
KANSAS CTY INT MOCLDY    46  37  71 NW15G26   29.94R
KANSAS C DTWN  PTCLDY    48  37  65 NW12G23   29.96R
LEE`S SUMMIT   CLEAR     48  37  65 NW20G28   29.94R
ST JOSEPH      CLOUDY    45  36  70 N26G39    29.98R
CHILLICOTHE      N/A     45  35  68 N16G24    29.89R
KIRKSVILLE     LGT RAIN  43  36  76 NW20G38   29.81R

$$
MOZ066>068-077>081-088>096-101>105-290900-
...SOUTHWEST MISSOURI...

CITY           SKY/WX    TMP DP  RH WIND       PRES   REMARKS
SPRINGFIELD    MOCLDY    60  38  43 W17G25    29.90R
JOPLIN         MOCLDY    55  36  48 NW12      29.97R

$$
MOZ032>034-039>042-045>050-055>058-069>072-290900-
...CENTRAL MISSOURI...

CITY           SKY/WX    TMP DP  RH WIND       PRES   REMARKS
COLUMBIA       CLEAR     54  40  59 W15G24    29.79R
JEFFERSON CITY CLEAR     53  39  59 W8        29.80R
ROLLA          MOCLDY    50  39  66 SW14      29.80R
SEDALIA        CLEAR     52  37  56 NW21G36   29.87R
OSAGE BEACH    PTCLDY    57  39  51 W10G17    29.83R

$$
MOZ051-052-059>065-290900-
...EAST CENTRAL MISSOURI...

CITY           SKY/WX    TMP DP  RH WIND       PRES   REMARKS
ST LOUIS INTL  CLOUDY    54  39  57 SW15      29.78R
SPIRIT OF STL  CLOUDY    53  39  59 SW10      29.77S
ST CHARLES     CLOUDY    40  35  83 CALM      29.76F

$$
MOZ072>076-082>087-097>100-106>115-290900-
...SOUTH CENTRAL AND SOUTHEAST MISSOURI...

CITY           SKY/WX    TMP DP  RH WIND       PRES   REMARKS
CAPE GIRARDEAU MOCLDY    49  36  61 S18G26    29.90F
FARMINGTON     MOCLDY    48  37  66 S16G23    29.87S
POPLAR BLUFF   MOCLDY    49  38  65 SW8       29.90F
WEST PLAINS    CLOUDY    51  39  63 SW8       29.90R

$$


USA.gov is the U.S. government's official web portal to all federal, state and local government web resources and services.